Weather History for Point Mugu, CA

Change the Weather History Date:

Wednesday, February 13, 2013

  Actual Average Record
Temperature  
Mean Temperature 50 °F -  
Max Temperature 61 °F 60 °F 78 °F (2006)
Min Temperature 39 °F 44 °F 37 °F (2009)
Degree Days  
Heating Degree Days 15    
Moisture  
Dew Point 42 °F    
Average Humidity 66    
Maximum Humidity 80    
Minimum Humidity 53    
Precipitation  
Precipitation 0.00 in - - ()
Sea Level Pressure  
Sea Level Pressure 30.22 in    
Wind  
Wind Speed 5 mph (NW)    
Max Wind Speed 10 mph    
Max Gust Speed -    
Visibility 7 miles    
Events      
Averages and records for this station are not official NWS values.
T = Trace of Precipitation, MM = Missing Value Source: NWS Daily Summary

Daily Weather History Graph

Daily Weather History Graph

Search for Another Location

Airport:

Trip Planner

Search our weather history database for the weather conditions in past years. The results will help you decide how hot, cold, wet, or windy it might be!

Date:

Astronomy

Feb. 13, 2013 Rise Set
Actual Time 6:42 AM PST 5:38 PM PST
Civil Twilight 6:17 AM PST 6:04 PM PST
Nautical Twilight 5:47 AM PST 6:33 PM PST
Astronomical Twilight 5:18 AM PST 7:03 PM PST
Moon 8:27 AM PST (2/13) 9:32 PM PST (2/13)
Length of Visible Light 11h 47m
Length of Day
10h 55m
Waxing Crescent, 14% of the Moon is Illuminated
Feb 13
Waxing Crescent
Feb 17
First Quarter
Feb 25
Full
Mar 4
Last Quarter
Mar 11
New

Hourly Weather History & Observations

Time (PST) Temp. Windchill Dew Point Humidity Pressure Visibility Wind Dir Wind Speed Gust Speed Precip Events Conditions
12:54 AM - - - N/A% 30.28 in - North 4.6 mph - N/A   Clear
1:54 AM - - - N/A% 30.27 in - North 4.6 mph - N/A   Clear
2:54 AM - - - N/A% 30.26 in - North 3.5 mph - N/A   Clear
3:54 AM - - - N/A% 30.25 in - North 6.9 mph - N/A   Clear
4:54 AM - - - N/A% 30.25 in - North 6.9 mph - N/A   Clear
5:54 AM 39.4 °F 36.1 °F 30.2 °F 70% 30.25 in 7.0 mi NNE 4.6 mph - N/A   Clear
6:54 AM 39.9 °F 36.7 °F 31.1 °F 71% 30.25 in 7.0 mi NNE 4.6 mph - N/A   Clear
7:54 AM 44.1 °F 41.5 °F 33.1 °F 65% 30.27 in 7.0 mi North 4.6 mph - N/A   Clear
8:54 AM 50.9 °F - 34.3 °F 53% 30.27 in 7.0 mi Calm Calm - N/A   Clear
9:54 AM 56.7 °F - 42.4 °F 59% 30.27 in 7.0 mi South 4.6 mph - N/A   Clear
10:54 AM 57.9 °F - 46.0 °F 65% 30.27 in 7.0 mi South 6.9 mph - N/A   Clear
11:54 AM 57.9 °F - 45.3 °F 63% 30.24 in 7.0 mi SSW 8.1 mph - N/A   Clear
12:54 PM 60.4 °F - 46.0 °F 59% 30.22 in 7.0 mi SW 9.2 mph - N/A   Partly Cloudy
1:54 PM 59.9 °F - 48.6 °F 66% 30.20 in 7.0 mi SW 5.8 mph - N/A   Clear
2:54 PM 59.9 °F - 48.6 °F 66% 30.18 in 7.0 mi WSW 10.4 mph - N/A   Clear
3:54 PM 61.5 °F - 47.5 °F 60% 30.17 in 7.0 mi West 8.1 mph - N/A   Clear
4:54 PM 56.8 °F - 46.0 °F 67% 30.16 in 7.0 mi West 4.6 mph - N/A   Clear
5:54 PM 55.9 °F - 43.2 °F 62% 30.16 in 7.0 mi WNW 3.5 mph - N/A   Clear
6:54 PM 52.2 °F - 41.7 °F 68% 30.16 in 7.0 mi NE 3.5 mph - N/A   Clear
7:54 PM 52.2 °F - 41.4 °F 67% 30.16 in 7.0 mi Calm Calm - N/A   Clear
8:54 PM 49.3 °F - 41.4 °F 74% 30.17 in 7.0 mi North 4.6 mph - N/A   Clear
9:54 PM 48.6 °F - 41.7 °F 77% 30.17 in 7.0 mi NNW 3.5 mph - N/A   Clear
10:54 PM 48.9 °F - 43.2 °F 80% 30.18 in 7.0 mi Calm Calm - N/A   Clear
11:54 PM - - - N/A% 30.18 in - Calm Calm - N/A   Clear